Aérodrome :
LOGIN :

S'inscrire | Disclaimer

   EN    FR    IT 

 










Légende :    VFR   VFR Marginal   IFR   IFR Intensif   IFR Très Intensif
Visi : 
Plafond : 
>= 8 km
>= 3000ft
5 à 8 km
1000 à 3000 ft
1500m à 5 km
500 à 1000 ft
800 à 1500m
200 à 500 ft
< 800m
< 200 ft
Symboles :   Orages  Brouillard  Fortes neiges  Fortes précipitations  Vent > 20 kt
SIGMETs :   Divers  Orages  Givrage  Turbulence  Onde Orograph.  Cendres Volcan.






- Altitude de l'aérodrome : 106 ft
- Code IATA : XDA


LFBY - Dax Seyresse

DERNIER METAR :
  • 070300Z AUTO VRB01KT 9999 // ////// 14/12 Q1010

METARs EXPIRÉS :
  • 070230Z AUTO 36004KT //// // ////// 14/12 Q1010
  • 070200Z AUTO 36003KT 330V050 9999 // ////// 15/12 Q1010
  • 070130Z AUTO 35003KT 9999 // ////// 15/12 Q1010
  • 070100Z AUTO VRB02KT 9999 // ////// 15/13 Q1010
  • 070030Z AUTO VRB02KT 9999 // ////// 15/13 Q1010
  • 070000Z AUTO VRB02KT 9999 // ////// 15/13 Q1010

Prévision TAF périmée.



MET'MAP, la Météo Aéronautique d'un coup d'oeil ! - Copyright ORBIFLY Décembre 2007 - Disclaimer

ORBIFLY MET'MAP TEAM :

Programmation & Développement : Alexandra Zaïnal
Sur une idée originale de : Baudouin d'Aumeries
Assistance à la programmation : Marc-Olivier Méhu
Soutien technique & logistique : Manuel Goepfert

Contact : metmap@orbifly.com




SOURCES & CREDITS :

   NOAA